Simultaneous Nadir Overpasses (SNOs) Predictions

Prediction of SNOs between AQUA and METOP-C Satellite Orbit:

Table of predicted SNOs for the next 14.0 days since TLE Epoch: 9/30/2023
Index Date (AQUA) Time (AQUA) Lat,Lon (AQUA) SZA (AQUA ) Date (METOP-C) Time (METOP-C) Lat,Lon (METOP-C) SZA (METOP-C ) Distance(km) Time Diff (sec)
1 10/01/2023 13:39:09 74.78, -28.37 77.92 10/01/2023 13:38:28 74.77, -28.24 77.92 3.84 41
2 10/01/2023 14:28:33 -74.84, 139.15 102.01 10/01/2023 14:29:09 -74.81, 139.18 102.04 3.49 36
3 10/04/2023 06:41:40 -74.77,-103.94 101.04 10/04/2023 06:40:52 -74.77,-103.86 101.05 2.75 48
4 10/04/2023 07:31:06 74.83, 63.57 79.03 10/04/2023 07:31:31 74.80, 63.58 79.01 2.69 25
5 10/06/2023 23:44:10 74.74,-179.46 79.97 10/06/2023 23:43:13 74.74,-179.50 79.98 1.05 57
6 10/07/2023 00:33:34 -74.80, -11.94 99.97 10/07/2023 00:33:54 -74.80, -12.03 99.97 2.67 20
7 10/09/2023 16:46:38 -74.74, 104.97 99.00 10/09/2023 16:45:37 -74.74, 104.89 99.00 2.40 61
8 10/09/2023 17:36:04 74.80, -87.54 81.07 10/09/2023 17:36:15 74.80, -87.59 81.08 1.66 11
9 10/09/2023 18:25:39 -75.40, 78.50 98.31 10/09/2023 18:26:45 -75.39, 81.42 98.32 82.04 66
10 10/12/2023 09:49:07 74.77, 29.30 82.06 10/12/2023 09:47:57 74.77, 29.41 82.06 3.28 70
11 10/12/2023 10:38:31 -74.82,-163.17 97.89 10/12/2023 10:38:39 -74.80,-163.21 97.91 2.76 8



Historial Predications of SNOs between AQUA and METOP-C
